Retour au catalogue

STARLINK-30775

ActifCommunicationsVLEO
NORAD 58139·PAYLOAD·🇺🇸 United States

Lancé Oct 22, 2023 depuis Cape Canaveral Space Force Station

Loading…

Prochains Passages (prochaines 24 heures)

TLE

FraisSource: CelesTrak SupGP

Époque: Sep 15, 2026, 02:26 UTC

1 58139C 23162X   26258.10187500  .00070943  00000+0  25679-2 0  2586
2 58139  43.0020 142.4423 0001367 272.9586 290.2165 15.27564831    11

Suivez STARLINK-30775 en temps réel avec AllMySat

Download on the App Store